Starlink 2354

operational
NORAD ID: 47894 Int'l Des: 2021-021 Owner: SPXS Country: US Constellation: starlink
LEOCIRCULARSTARLINK_TYPE

Über Starlink 2354

Beschreibung wird geladen...

Live-Position

3D-Globus wird geladen...

Nächste Überflüge

Höhenverlauf

Altitude vs Time

uPlot chart will show altitude changes over time

Zweizeiliger Elementsatz

1 47894U 21021AL 25354.14901995 -.00000381 00000-0 -66595-5 0 9995
2 47894 53.0551 268.6928 0001493 90.6926 269.4234 15.06394055264159
Epoch: 20. Dez. 2025 • Age: 12 hours

Aktueller Status

Höhe 548.1 km
Geschwindigkeit 7.59 km/s
Subsatellitenpunkt 29.32°N, 101.91°E
Startdatum 14. März 2021
Alter 4.7 years
Typ internet

Technische Details

Klassifizierung Payload
Masse 260.00 kg
Trockenmasse 248.00 kg
Gesamtmasse 260.00 kg
Länge 0.20 m
Durchmesser 2.80 m
Spannweite 9.00 m
Form Box + pan
Hersteller SPXS
Bus-Typ Starlink
Phasenstatus In Orbit
Besitzer/Staat SPXS/US

Große Konstellationen

Loading constellations...